Regional Weather Roundup
Issued by NWS Cleveland, OH

Home | Current Version | Previous Version | Graphics & Text | Print | Product List | Glossary On
Versions: 1 2 3 4 5 6 7 8 9 10 11 12 13 14 15 16 17 18 19 20 21 22 23 24 25 26 27 28 29 30 31 32 33 34 35 36 37 38 39 40 41 42 43 44 45 46 47 48 49 50
000
ASUS41 KCLE 260810
RWRCLE
OHIO REGIONAL WEATHER ROUNDUP
NATIONAL WEATHER SERVICE WILMINGTON, OH
400 AM EDT SAT JUL 26 2014

NOTE: "FAIR" INDICATES FEW OR NO CLOUDS BELOW 12,000 FEET WITH NO
SIGNIFICANT WEATHER AND/OR OBSTRUCTIONS TO VISIBILITY.

OHZ001>008-015>018-024>027-034-035-043-044-260900-
   NORTHWEST OHIO

CITY           SKY/WX    TMP DP  RH WIND       PRES   REMARKS
DEFIANCE       CLEAR     60  56  86 S3        29.94F
FINDLAY        PTCLDY    61  56  83 S8        29.95F
TOLEDO EXPRESS CLEAR     60  56  86 S3        29.95F
TOLEDO METCALF CLEAR     62  56  80 S3        29.96F
LIMA           PTCLDY    65  57  75 S7        29.97F
$$

OHZ009>014-019>023-028>033-038-089-260900-
   NORTHEAST OHIO

CITY           SKY/WX    TMP DP  RH WIND       PRES   REMARKS
CLE-HOPKINS    CLOUDY    63  59  87 S6        29.99F
CLE-LAKEFRONT  CLOUDY    65  60  84 SE9       29.96F
CUY CO. ARPT   NOT AVBL
LORAIN-ELYRIA  CLOUDY    66  61  84 SE3       29.98F
ASHTABULA      CLOUDY    62  56  80 CALM      30.00S
AKRON-CANTON   CLOUDY    67  60  78 CALM      30.00F
WOOSTER        CLOUDY    64  61  90 CALM      30.00F
MANSFIELD      CLOUDY    64  58  80 S5        30.00F
YOUNGSTOWN     CLOUDY    60  58  92 SE6       30.01F
$$

OHZ042-051>053-060>062-070>072-077>081-260900-
  SOUTHWEST OHIO

CITY           SKY/WX    TMP DP  RH WIND       PRES   REMARKS
CINC-COVINGTON CLOUDY    68  61  78 S5        29.99F
CINC-LUNKEN    CLOUDY    66  64  93 CALM      29.99F
HAMILTON       CLOUDY    67  65  93 CALM      29.99F
DAYTON         CLOUDY    66  60  81 SE3       29.99F
WRIGHT-PAT AFB MOCLDY    65  61  86 CALM      29.98F
DAYTON GENERAL CLOUDY    67  61  81 S5        29.98F
WILMINGTON     CLOUDY    65  60  84 S5        30.00F
$$

OHZ036-037-039>041-045>050-054>059-063>069-073>076-082>088-260900-
  CENTRAL AND SOUTHEAST OHIO

CITY           SKY/WX    TMP DP  RH WIND       PRES   REMARKS
COLUMBUS       MOCLDY    71  59  65 S3        29.99S
OSU AIRPORT    CLOUDY    69  60  73 S5        29.99S
BOLTON FIELD   CLOUDY    64  61  92 CALM      30.00S
RICKENBACK AFB PTCLDY    65  59  80 S5        29.99S
NEWARK         CLOUDY    65  62  90 CALM      30.00S
MARION         CLOUDY    64  59  83 S6        29.99F
LANCASTER      CLOUDY    65  61  87 CALM      30.00F
ZANESVILLE     MOCLDY    65  61  87 CALM      30.00F
NEW PHILLY     CLOUDY    64  62  93 CALM      30.01F
$$


USA.gov is the U.S. government's official web portal to all federal, state and local government web resources and services.